Wind_Speed
33 34 35 37 39 40 41 42 43 41 40 39 38 37 36 36 35 35 34 34 35 35 36 37 37 37 36 37 38 38 39 40 40 40 40 41 41 43 44 44 44 46 46 46
33 34 35 37 37 37 39 40 41 42 41 39 39 38 37 36 36 36 35 35 35 36 36 37 37 37 37 37 38 39 40 40 41 41 41 42 42 43 43 44 45 45 45 45
33 32 34 35 35 35 37 38 39 40 39 38 39 38 37 36 36 35 36 35 35 35 36 37 38 38 38 39 39 40 40 40 41 41 42 42 42 42 43 44 44 44 44 44
31 31 33 33 33 35 35 36 37 37 37 37 37 37 37 36 36 35 36 36 35 35 35 36 36 37 38 39 40 40 41 41 42 42 42 42 42 42 43 43 43 44 43 43
29 29 31 31 32 32 34 34 35 36 37 37 37 38 37 37 37 37 37 36 36 35 35 36 36 37 38 38 38 39 40 41 41 41 41 41 42 41 41 42 42 43 43 43
30 29 29 29 29 30 32 34 35 35 36 36 37 38 37 37 37 37 37 36 36 37 37 37 37 37 37 37 38 38 39 40 40 39 40 40 40 40 40 40 41 41 42 43
28 29 28 27 28 28 30 31 32 33 34 35 35 36 36 37 37 37 36 36 36 36 36 37 37 37 37 37 38 38 38 39 38 38 38 38 38 38 39 39 39 40 41 41
26 27 27 26 26 27 27 27 30 31 32 33 33 34 35 35 35 35 35 35 35 35 35 35 35 36 36 36 36 36 37 37 37 37 37 37 37 37 38 39 39 39 40 40
23 24 23 24 25 25 26 27 27 29 31 32 32 32 32 32 33 32 33 33 33 33 33 33 34 34 34 35 35 35 35 35 35 36 36 36 36 37 38 38 39 40 40 40
19 20 21 23 24 25 26 26 27 28 29 30 30 30 31 32 33 33 33 33 33 33 33 33 33 32 33 33 33 33 34 34 35 36 36 36 36 37 38 38 39 40 39 39
18 19 20 22 22 23 23 24 24 25 26 27 29 30 30 31 31 32 32 32 33 33 33 33 33 33 32 32 33 33 34 34 34 35 35 36 37 37 38 38 38 38 38 38
16 17 19 20 21 21 22 23 24 24 26 26 27 28 28 29 30 31 31 32 32 32 32 32 32 32 32 33 33 34 34 34 34 35 35 36 36 37 37 37 38 38 38 38
15 16 17 18 20 20 21 22 23 24 24 25 26 27 28 29 29 30 30 30 30 31 32 32 32 32 33 34 34 34 34 34 34 35 36 36 37 38 38 38 38 39 38 37
14 15 16 17 18 19 20 21 22 23 23 24 25 26 26 27 28 28 29 29 29 30 30 31 31 32 32 33 33 34 34 35 35 35 36 36 37 37 37 37 37 37 36 35
14 15 16 17 18 19 19 20 21 22 23 24 25 25 26 27 27 27 27 27 27 28 28 29 30 30 31 31 32 33 34 34 34 35 35 35 36 35 35 35 34 34 33 32
14 15 16 17 18 19 19 19 20 21 22 23 24 25 25 26 26 26 26 26 27 27 28 28 29 30 30 30 31 32 32 33 33 33 33 34 34 34 33 33 31 31 30 28
14 14 15 16 18 19 19 19 19 20 20 21 22 23 24 24 24 25 25 25 26 27 27 28 28 28 29 29 30 30 30 30 30 31 31 31 31 31 30 29 28 28 27 26
14 14 15 15 16 18 19 19 20 20 20 20 21 22 23 23 23 23 24 24 25 26 26 27 27 27 27 27 27 27 28 28 29 29 29 29 29 28 27 27 26 26 24 24
14 14 15 15 16 17 17 18 19 20 20 20 20 20 21 21 22 22 22 23 23 24 24 25 25 26 26 27 27 27 27 27 28 28 28 27 26 26 25 24 24 23 22 21
13 13 14 15 15 16 16 17 18 19 19 19 18 18 19 19 20 20 21 22 22 23 24 24 25 25 25 25 26 26 26 26 26 26 25 24 23 22 22 21 21 20 19 17
12 13 14 14 15 16 16 16 17 17 18 18 18 18 18 18 18 19 19 20 21 22 23 24 24 24 24 25 25 25 25 25 24 23 22 21 21 20 19 18 17 16 16 15
12 13 13 14 14 15 15 15 16 16 17 17 18 18 18 18 18 18 19 20 20 21 21 22 22 22 23 23 23 23 22 22 21 20 19 19 18 18 17 16 15 14 14 13
13 13 13 13 14 14 14 14 14 15 15 16 17 18 18 18 18 18 18 19 19 19 19 20 20 20 20 20 19 19 19 18 17 16 16 15 15 15 14 14 13 13 13 13
12 12 12 13 13 13 13 13 14 14 14 15 15 16 17 17 17 18 18 18 18 18 18 18 18 17 17 17 16 16 15 15 14 14 13 13 12 12 12 11 12 12 12 12
12 12 12 12 12 12 13 13 13 14 14 14 14 15 16 16 16 16 16 16 16 16 16 15 15 15 15 15 14 14 14 13 13 12 12 11 11 10 10 10 10 10 10 10
12 12 12 12 13 13 13 13 14 14 15 15 15 15 15 16 16 16 16 15 15 15 15 15 15 14 14 14 14 13 13 12 12 11 10 10 9 9 9 9 8 8 7 7
12 12 12 13 13 13 14 14 14 14 14 14 15 15 15 15 15 15 15 15 14 14 14 14 13 13 13 13 13 12 12 11 11 11 10 10 9 9 8 7 6 6 5 5
Wind_Direction
227 227 226 226 227 228 228 229 232 233 234 233 235 236 238 239 239 240 241 242 243 244 246 248 250 252 254 256 257 258 260 261 262 263 265 267 270 273 274 276 279 282 283 284
227 227 227 227 225 227 228 229 231 233 233 233 233 235 237 239 240 240 241 243 244 246 247 248 250 253 255 257 258 258 259 260 262 264 266 269 272 274 275 277 279 282 283 284
228 228 228 229 225 226 229 229 230 232 232 233 233 234 236 238 240 241 241 243 245 246 248 249 252 254 256 258 258 258 258 260 262 264 267 270 271 274 276 278 280 282 283 284
228 227 229 229 226 227 229 229 229 231 231 231 233 234 236 237 239 241 242 244 246 247 249 251 253 255 257 259 259 259 260 261 263 265 267 269 272 274 276 278 280 282 283 284
226 227 230 229 227 227 229 230 230 231 231 232 233 233 235 237 239 241 243 245 246 248 250 253 255 257 258 260 261 261 261 263 264 266 267 269 272 274 276 278 280 282 283 285
226 227 229 228 228 229 230 231 230 232 233 235 236 236 237 238 240 242 244 247 248 250 253 255 258 259 259 260 261 262 262 263 264 266 267 269 271 274 277 279 281 284 285 286
228 229 231 230 231 231 232 231 231 232 234 236 237 238 238 239 240 243 245 247 249 252 254 257 259 259 260 260 261 262 263 263 264 266 267 270 272 275 278 281 284 285 286 287
226 228 229 229 232 232 233 232 231 231 232 234 235 237 237 238 240 243 245 247 249 251 254 256 258 258 259 260 261 262 263 263 265 266 268 271 274 277 280 283 285 287 287 288
226 226 227 228 231 233 233 233 232 231 231 232 233 234 235 236 238 241 243 245 248 251 253 256 256 257 259 260 261 262 262 263 265 267 269 271 274 277 280 282 285 287 287 288
223 224 226 227 228 231 232 233 234 233 231 230 230 232 234 236 238 241 243 246 249 251 253 255 256 258 258 260 261 262 263 265 267 269 270 272 275 278 281 283 285 287 288 288
227 228 229 228 229 231 231 230 230 230 229 228 230 233 235 238 240 242 244 246 249 251 254 256 256 257 259 260 261 263 265 267 269 271 272 274 277 279 282 284 287 287 287 288
233 233 232 228 228 231 232 230 228 229 229 230 232 235 237 240 243 245 246 248 250 252 255 256 257 257 258 260 262 265 267 268 269 271 273 275 278 280 283 285 286 288 288 288
232 231 229 227 228 230 231 232 232 234 236 237 239 239 240 242 244 246 248 250 252 254 256 256 256 258 259 261 263 265 267 268 270 272 274 276 278 280 282 283 286 288 288 289
236 234 230 229 230 231 233 234 236 240 242 241 241 241 241 242 243 245 247 250 253 255 256 256 258 259 260 262 263 265 266 268 271 273 275 277 279 281 282 283 286 288 288 288
239 239 237 234 233 235 237 237 239 240 241 241 240 240 240 242 243 245 247 250 253 255 256 257 259 260 260 262 265 266 268 271 274 276 276 278 279 281 283 284 285 286 288 286
241 242 242 242 241 240 241 241 242 242 242 241 241 242 243 244 245 247 250 252 254 256 257 258 260 261 262 265 267 269 270 272 275 276 277 279 280 281 283 284 284 285 286 285
244 243 243 244 244 244 244 245 245 244 243 242 243 244 244 245 247 248 251 253 256 258 259 260 261 262 263 265 267 268 270 272 275 277 278 280 281 281 281 282 283 283 284 284
247 246 246 246 244 245 246 246 246 246 246 246 245 244 245 246 248 249 252 255 258 260 261 261 262 263 264 266 266 266 268 271 274 277 280 281 280 280 281 281 282 282 283 283
251 250 251 251 251 250 248 246 246 247 248 248 248 247 248 248 250 251 254 257 259 260 260 261 261 262 264 264 265 267 270 272 274 277 279 279 278 279 280 281 281 280 281 281
254 254 254 253 252 250 248 247 248 247 246 246 247 248 249 250 251 253 255 258 260 261 262 263 264 264 264 264 266 267 270 273 275 277 278 277 278 279 280 280 280 279 277 278
256 257 256 254 252 251 251 249 248 245 244 244 245 247 249 251 254 257 260 262 263 263 263 265 265 264 264 265 266 268 270 272 273 274 274 275 277 278 280 280 279 278 274 273
259 260 259 255 253 251 250 247 246 245 245 245 245 246 248 252 256 259 262 265 267 268 268 267 266 265 265 266 267 269 269 270 271 271 272 274 276 278 278 277 275 273 271 271
263 262 259 256 253 250 247 245 245 245 246 246 246 247 250 254 258 261 265 267 268 269 269 267 268 267 266 266 268 268 266 267 268 269 273 275 276 276 275 273 270 271 269 270
264 262 258 254 251 248 246 245 245 244 245 247 249 251 254 256 259 262 266 269 269 268 268 267 266 265 264 264 266 266 264 265 266 268 271 274 274 272 271 270 270 271 268 268
263 259 256 252 248 246 245 246 246 246 247 250 252 254 256 258 261 264 267 268 268 268 267 264 262 261 262 262 263 262 263 264 265 266 268 272 272 268 267 270 271 270 267 263
264 259 255 251 248 247 248 249 250 250 251 253 256 258 261 262 263 265 266 267 267 266 264 262 261 259 259 260 261 260 260 261 259 258 261 265 266 265 268 271 272 269 263 254
265 262 258 256 253 250 252 253 253 253 254 255 257 259 262 263 265 265 264 265 266 264 262 261 259 255 256 257 257 255 257 256 253 253 254 260 262 262 263 266 266 258 248 236
Height
5525 5529 5534 5539 5545 5550 5555 5560 5565 5572 5577 5584 5588 5593 5597 5601 5606 5610 5613 5617 5620 5623 5626 5628 5630 5632 5633 5634 5635 5636 5637 5637 5638 5639 5638 5638 5637 5636 5635 5634 5632 5629 5626 5623
5517 5522 5526 5531 5537 5542 5546 5552 5557 5562 5568 5574 5579 5584 5588 5592 5596 5600 5604 5607 5610 5613 5616 5618 5620 5622 5624 5625 5625 5626 5627 5627 5628 5628 5628 5627 5627 5625 5624 5622 5620 5617 5614 5611
5511 5515 5518 5523 5530 5534 5539 5543 5549 5553 5561 5565 5569 5574 5579 5583 5587 5591 5594 5598 5601 5604 5606 5608 5610 5612 5614 5615 5615 5616 5616 5617 5618 5618 5617 5617 5616 5615 5613 5611 5608 5606 5603 5600
5503 5508 5512 5519 5523 5527 5530 5535 5541 5546 5551 5556 5561 5565 5570 5574 5578 5581 5585 5588 5592 5594 5596 5598 5600 5602 5603 5604 5605 5605 5606 5607 5607 5607 5607 5606 5605 5604 5602 5600 5598 5595 5592 5590
5498 5501 5505 5511 5515 5519 5523 5528 5533 5537 5542 5547 5552 5556 5561 5565 5568 5572 5576 5579 5582 5584 5587 5589 5590 5592 5593 5594 5594 5595 5596 5596 5596 5596 5596 5595 5594 5593 5591 5590 5587 5585 5582 5579
5492 5495 5499 5505 5508 5512 5516 5520 5525 5529 5534 5538 5543 5548 5553 5556 5559 5563 5566 5569 5572 5575 5577 5579 5580 5582 5583 5584 5584 5585 5585 5586 5586 5586 5586 5585 5584 5583 5582 5580 5577 5575 5572 5569
5486 5489 5493 5498 5501 5505 5510 5514 5518 5522 5526 5530 5534 5539 5544 5547 5551 5554 5557 5560 5563 5565 5567 5569 5570 5572 5573 5573 5574 5574 5575 5575 5575 5575 5575 5575 5574 5573 5572 5570 5568 5565 5562 5559
5481 5484 5490 5492 5495 5499 5502 5506 5510 5513 5517 5522 5526 5530 5534 5538 5542 5545 5548 5551 5553 5556 5558 5559 5560 5561 5562 5563 5564 5565 5565 5565 5565 5566 5565 5565 5564 5563 5562 5560 5558 5555 5552 5549
5476 5481 5483 5485 5489 5492 5496 5499 5503 5506 5510 5514 5518 5521 5525 5529 5533 5536 5539 5542 5544 5546 5548 5550 5551 5552 5553 5554 5555 5555 5556 5556 5556 5556 5556 5555 5555 5554 5552 5550 5548 5545 5543 5540
5471 5474 5477 5480 5483 5486 5489 5492 5495 5499 5503 5506 5510 5514 5518 5521 5525 5528 5530 5533 5535 5538 5539 5541 5542 5543 5544 5545 5546 5546 5546 5546 5547 5546 5546 5545 5545 5544 5542 5540 5538 5535 5533 5530
5467 5470 5472 5475 5478 5481 5483 5486 5489 5492 5496 5499 5503 5507 5510 5513 5516 5519 5522 5524 5526 5529 5530 5532 5533 5534 5535 5536 5537 5537 5537 5537 5537 5537 5536 5536 5535 5534 5532 5530 5528 5526 5523 5520
5463 5466 5468 5470 5473 5476 5478 5481 5484 5487 5490 5493 5496 5499 5502 5505 5508 5511 5513 5516 5518 5520 5521 5523 5524 5525 5526 5527 5528 5528 5528 5528 5528 5527 5527 5526 5525 5524 5522 5520 5518 5515 5512 5510
5460 5461 5463 5466 5468 5470 5473 5476 5478 5481 5484 5486 5489 5491 5494 5497 5500 5503 5505 5507 5509 5511 5512 5513 5515 5516 5517 5518 5518 5518 5519 5519 5518 5518 5517 5516 5515 5514 5512 5510 5507 5505 5502 5499
5456 5458 5460 5461 5464 5466 5468 5470 5472 5475 5477 5480 5482 5484 5487 5490 5492 5494 5497 5498 5500 5502 5503 5504 5505 5506 5507 5508 5508 5509 5509 5509 5508 5508 5507 5506 5505 5503 5502 5500 5498 5495 5492 5489
5453 5454 5456 5457 5459 5461 5463 5465 5467 5469 5471 5473 5475 5478 5480 5482 5484 5486 5488 5490 5492 5493 5494 5495 5496 5497 5498 5499 5499 5499 5499 5499 5499 5498 5497 5496 5494 5493 5491 5490 5487 5485 5483 5480
5449 5450 5451 5453 5454 5456 5458 5460 5461 5463 5465 5467 5469 5471 5473 5475 5477 5479 5480 5482 5483 5485 5486 5487 5488 5489 5489 5490 5490 5490 5490 5490 5489 5488 5487 5486 5485 5483 5481 5480 5478 5476 5474 5472
5445 5446 5447 5448 5449 5451 5452 5454 5455 5457 5459 5461 5462 5464 5466 5468 5470 5471 5472 5474 5475 5477 5478 5478 5479 5480 5480 5481 5481 5481 5481 5480 5480 5479 5478 5477 5475 5474 5472 5471 5469 5468 5466 5465
5440 5441 5442 5443 5444 5445 5447 5448 5450 5451 5453 5454 5456 5458 5459 5461 5462 5464 5465 5466 5468 5468 5469 5470 5470 5471 5472 5472 5472 5472 5472 5472 5471 5470 5469 5468 5466 5465 5463 5462 5461 5460 5459 5457
5435 5436 5437 5438 5439 5440 5441 5442 5444 5445 5447 5448 5450 5451 5452 5454 5455 5457 5458 5459 5460 5461 5461 5461 5462 5463 5463 5463 5464 5464 5464 5463 5463 5462 5461 5459 5458 5457 5456 5455 5453 5452 5451 5451
5431 5432 5432 5433 5433 5434 5435 5436 5438 5439 5440 5442 5444 5445 5446 5447 5449 5450 5451 5452 5452 5453 5453 5454 5454 5455 5455 5455 5456 5456 5456 5455 5455 5454 5453 5452 5451 5449 5448 5447 5446 5446 5445 5445
5427 5427 5427 5428 5428 5429 5430 5431 5432 5433 5435 5436 5438 5439 5440 5441 5442 5443 5444 5445 5445 5445 5446 5446 5446 5447 5447 5447 5448 5448 5448 5447 5447 5446 5445 5444 5444 5443 5442 5441 5440 5439 5439 5439
5422 5422 5423 5423 5423 5424 5425 5426 5427 5428 5429 5430 5432 5433 5434 5435 5436 5437 5438 5438 5438 5438 5438 5438 5439 5439 5439 5440 5440 5440 5440 5440 5439 5439 5438 5438 5437 5436 5435 5435 5434 5434 5434 5434
5418 5418 5418 5418 5418 5419 5420 5421 5421 5422 5423 5425 5426 5427 5428 5429 5430 5431 5431 5431 5431 5431 5431 5431 5432 5432 5432 5433 5433 5433 5433 5433 5433 5433 5432 5432 5431 5430 5430 5429 5429 5429 5429 5429
5413 5413 5413 5413 5414 5414 5415 5416 5417 5417 5418 5419 5420 5421 5422 5423 5424 5424 5425 5425 5425 5425 5425 5425 5425 5426 5426 5426 5427 5427 5427 5427 5427 5427 5427 5427 5426 5425 5425 5424 5424 5424 5424 5425
5408 5408 5409 5409 5409 5410 5411 5411 5412 5413 5414 5414 5415 5416 5416 5417 5418 5418 5418 5418 5419 5419 5419 5419 5420 5420 5420 5421 5421 5422 5422 5422 5422 5423 5423 5422 5421 5421 5421 5421 5420 5420 5420 5421
5404 5404 5404 5405 5405 5406 5406 5407 5407 5408 5408 5409 5410 5410 5411 5411 5412 5412 5412 5413 5413 5413 5413 5414 5414 5415 5415 5416 5416 5417 5417 5417 5418 5418 5418 5418 5418 5418 5418 5417 5417 5417 5417 5418
5399 5399 5400 5400 5400 5401 5401 5402 5402 5403 5403 5404 5404 5405 5405 5405 5406 5406 5406 5407 5407 5408 5408 5409 5409 5409 5410 5411 5411 5412 5412 5413 5414 5414 5415 5415 5415 5415 5415 5415 5415 5415 5415 5416